Regional Weather Roundup
Issued by NWS

Home | Current Version | Previous Version | Graphics & Text | Print | Product List | Glossary On
Versions: 1 2 3 4 5 6 7 8 9 10 11 12 13 14 15 16 17 18 19 20 21 22 23 24 25 26 27 28 29 30 31 32 33 34 35 36 37 38 39 40 41 42 43 44 45 46 47 48 49 50
000
ASUS43 KBIS 230502
RWRND

NORTH DAKOTA REGIONAL WEATHER ROUNDUP
NATIONAL WEATHER SERVICE BISMARCK ND
1200 AM CDT WED AUG 23 2017

NOTE: "FAIR" INDICATES FEW OR NO CLOUDS BELOW 12,000 FEET WITH NO
SIGNIFICANT WEATHER AND/OR OBSTRUCTIONS TO VISIBILITY.


NDZ001>003-009>011-017-230600-
NORTHWEST NORTH DAKOTA

CITY           SKY/WX    TMP DP  RH WIND       PRES   REMARKS
WILLISTON      CLEAR     65  46  50 S5        30.08S
MINOT          CLEAR     59  44  57 S6        30.09S
MINOT AFB      MOCLDY    55  43  62 S6        30.08S
$$

NDZ018>021-031>035-040>046-230600-
SOUTHWEST NORTH DAKOTA

CITY           SKY/WX    TMP DP  RH WIND       PRES   REMARKS
BISMARCK       CLEAR     52  49  89 E3        30.13R
DICKINSON      CLEAR     54  42  64 SE8       30.13R
GARRISON         N/A     57  47  69 E5        30.11S
HETTINGER ARPT CLEAR     60  43  53 E12       30.15S
$$

NDZ004>008-012>016-024-026-027-054-230600-
NORTHEAST NORTH DAKOTA

CITY           SKY/WX    TMP DP  RH WIND       PRES   REMARKS
GRAND FORKS    CLEAR     51  48  89 W7        30.08S
GRND FRKS AFB  CLEAR     48  45  87 NW5       30.09S
DEVILS LAKE    CLEAR     53  46  77 CALM      30.11S
$$

NDZ022-023-025-028>030-036>039-047>053-230600-
SOUTHEAST NORTH DAKOTA

CITY           SKY/WX    TMP DP  RH WIND       PRES   REMARKS
FARGO          CLEAR     53  47  79 CALM      30.08S
JAMESTOWN      CLEAR     50  47  89 CALM      30.12R
$$





USA.gov is the U.S. government's official web portal to all federal, state and local government web resources and services.